This is the latest recevied weather packets stored in our database for station/object KC1TEM-13. If no packets are shown the sender has not sent any weather packets the latest 10 day(s).
| Time | Temp. | Humidity | Pressure | Rain* | Wind** | Luminosity | Snow |
|---|---|---|---|---|---|---|---|
| 1788372390 | 20° C | 83% | 1022.9 hPa | 0 mm | - | 251 W/m² | - |
| 1788372086 | 20° C | 84% | 1022.8 hPa | 0 mm | - | 247 W/m² | - |
| 1788371786 | 20° C | 83% | 1022.9 hPa | 0 mm | - | 272 W/m² | - |
| 1788371481 | 20° C | 79% | 1023 hPa | 0 mm | - | 266 W/m² | - |
| 1788371178 | 20° C | 81% | 1022.9 hPa | 0 mm | - | 241 W/m² | - |
| 1788370873 | 20° C | 81% | 1023 hPa | 0 mm | - | 171 W/m² | - |
| 1788370568 | 20° C | 81% | 1023.1 hPa | 0 mm | - | 185 W/m² | - |
| 1788370263 | 20° C | 84% | 1022.9 hPa | 0 mm | - | 207 W/m² | - |
| 1788369963 | 20° C | 83% | 1023 hPa | 0 mm | - | 212 W/m² | - |
| 1788369657 | 20.56° C | 83% | 1022.9 hPa | 0 mm | - | 237 W/m² | - |
| 1788369353 | 20° C | 81% | 1022.8 hPa | 0 mm | - | 316 W/m² | - |
| 1788369049 | 20° C | 85% | 1022.9 hPa | 0 mm | - | 253 W/m² | - |
| 1788368744 | 20° C | 86% | 1023.1 hPa | 0 mm | - | 229 W/m² | - |
| 1788368440 | 20° C | 84% | 1023.1 hPa | 0 mm | - | 231 W/m² | - |
| 1788368140 | 20° C | 83% | 1023.1 hPa | 0 mm | - | 222 W/m² | - |
| 1788367839 | 20° C | 82% | 1022.8 hPa | 0 mm | - | 190 W/m² | - |
| 1788367535 | 20° C | 84% | 1022.9 hPa | 0 mm | - | 185 W/m² | - |
| 1788367233 | 20° C | 84% | 1022.9 hPa | 0 mm | - | 230 W/m² | - |
| 1788366930 | 20.56° C | 83% | 1023 hPa | 0 mm | - | 200 W/m² | - |
| 1788366628 | 20.56° C | 79% | 1022.9 hPa | 0 mm | - | 213 W/m² | - |
| 1788366327 | 20.56° C | 81% | 1023.2 hPa | 0 mm | - | 230 W/m² | - |
| 1788366023 | 21.11° C | 81% | 1023.2 hPa | 0 mm | - | 289 W/m² | - |
| 1788365717 | 20.56° C | 82% | 1023.1 hPa | 0 mm | - | 439 W/m² | - |
| 1788365413 | 20.56° C | 80% | 1023.2 hPa | 0 mm | - | 420 W/m² | - |
| 1788365109 | 20.56° C | 80% | 1023.1 hPa | 0 mm | - | 315 W/m² | - |
* Rain latest hour (hover to see other rain measurements)
** Current wind speed in m/s (hover to see current wind gust speed)